Year,Month,Day,Hour,Minute,Value (Times are PST for windspeed in km/hr)
2008,10,07,00,00,5.40
2008,10,07,00,01,10.50
2008,10,07,00,02,12.30
2008,10,07,00,03,9.50
2008,10,07,00,04,11.30
2008,10,07,00,05,18.80
2008,10,07,00,06,11.50
2008,10,07,00,07,14.30
2008,10,07,00,08,28.20
2008,10,07,00,09,26.60
2008,10,07,00,10,23.00
2008,10,07,00,11,27.70
2008,10,07,00,12,23.30
2008,10,07,00,13,24.00
2008,10,07,00,14,27.80
2008,10,07,00,15,24.00
2008,10,07,00,16,23.90
2008,10,07,00,17,17.30
2008,10,07,00,18,24.50
2008,10,07,00,19,19.00
2008,10,07,00,20,19.00
2008,10,07,00,21,18.00
2008,10,07,00,22,28.80
2008,10,07,00,23,28.90
2008,10,07,00,24,29.60
2008,10,07,00,25,24.50
2008,10,07,00,26,25.60
2008,10,07,00,27,20.70
2008,10,07,00,28,21.30
2008,10,07,00,29,30.40
2008,10,07,00,30,26.40
2008,10,07,00,31,19.10
2008,10,07,00,32,31.00
2008,10,07,00,33,25.10
2008,10,07,00,34,30.70
2008,10,07,00,35,21.60
2008,10,07,00,36,19.90
2008,10,07,00,37,25.80
2008,10,07,00,38,22.80
2008,10,07,00,39,15.60
2008,10,07,00,40,26.50
2008,10,07,00,41,27.20
2008,10,07,00,42,23.80
2008,10,07,00,43,21.60
2008,10,07,00,44,19.80
2008,10,07,00,45,25.20
2008,10,07,00,46,27.30
2008,10,07,00,47,26.70
2008,10,07,00,48,24.00
2008,10,07,00,49,22.80
2008,10,07,00,50,19.70
2008,10,07,00,51,23.20
2008,10,07,00,52,21.50
2008,10,07,00,53,17.40
2008,10,07,00,54,16.30
2008,10,07,00,55,26.40
2008,10,07,00,56,33.70
2008,10,07,00,57,34.20
2008,10,07,00,58,19.60
2008,10,07,00,59,12.80
2008,10,07,01,00,20.00
2008,10,07,01,01,22.70
2008,10,07,01,02,21.40
2008,10,07,01,03,15.90
2008,10,07,01,04,24.70
2008,10,07,01,05,28.80
2008,10,07,01,06,21.40
2008,10,07,01,07,17.20
2008,10,07,01,08,21.60
2008,10,07,01,09,19.00
2008,10,07,01,10,18.60
2008,10,07,01,11,16.30
2008,10,07,01,12,15.10
2008,10,07,01,13,5.60
2008,10,07,01,14,15.50
2008,10,07,01,15,22.40
2008,10,07,01,16,9.70
2008,10,07,01,17,29.90
2008,10,07,01,18,25.20
2008,10,07,01,19,23.20
2008,10,07,01,20,25.70
2008,10,07,01,21,19.90
2008,10,07,01,22,24.10
2008,10,07,01,23,27.70
2008,10,07,01,24,25.70
2008,10,07,01,25,26.30
2008,10,07,01,26,30.70
2008,10,07,01,27,17.50
2008,10,07,01,28,21.50
2008,10,07,01,29,23.00
2008,10,07,01,30,29.50
2008,10,07,01,31,28.60
2008,10,07,01,32,27.80
2008,10,07,01,33,37.60
2008,10,07,01,34,28.90
2008,10,07,01,35,34.30
2008,10,07,01,36,35.80
2008,10,07,01,37,31.50
2008,10,07,01,38,29.20
2008,10,07,01,39,38.80
2008,10,07,01,40,24.50
2008,10,07,01,41,25.70
2008,10,07,01,42,35.90
2008,10,07,01,43,36.60
2008,10,07,01,44,31.60
2008,10,07,01,45,33.40
2008,10,07,01,46,38.60
2008,10,07,01,47,41.10
2008,10,07,01,48,27.90
2008,10,07,01,49,34.70
2008,10,07,01,50,30.50
2008,10,07,01,51,27.90
2008,10,07,01,52,34.80
2008,10,07,01,53,30.10
2008,10,07,01,54,15.10
2008,10,07,01,55,25.00
2008,10,07,01,56,27.10
2008,10,07,01,57,30.00
2008,10,07,01,58,28.40
2008,10,07,01,59,22.00
2008,10,07,02,00,26.60
2008,10,07,02,01,29.90
2008,10,07,02,02,25.70
2008,10,07,02,03,19.60
2008,10,07,02,04,30.60
2008,10,07,02,05,27.40
2008,10,07,02,06,25.80
2008,10,07,02,07,19.00
2008,10,07,02,08,25.20
2008,10,07,02,09,26.10
2008,10,07,02,10,28.70
2008,10,07,02,11,29.20
2008,10,07,02,12,21.80
2008,10,07,02,13,33.20
2008,10,07,02,14,22.10
2008,10,07,02,15,25.20
2008,10,07,02,16,27.90
2008,10,07,02,17,29.20
2008,10,07,02,18,27.80
2008,10,07,02,19,31.90
2008,10,07,02,20,27.10
2008,10,07,02,21,18.80
2008,10,07,02,22,19.20
2008,10,07,02,23,32.50
2008,10,07,02,24,25.70
2008,10,07,02,25,22.10
2008,10,07,02,26,25.00
2008,10,07,02,27,26.40
2008,10,07,02,28,26.40
2008,10,07,02,29,27.50
2008,10,07,02,30,34.60
2008,10,07,02,31,41.00
2008,10,07,02,32,29.20
2008,10,07,02,33,23.40
2008,10,07,02,34,31.80
2008,10,07,02,35,34.40
2008,10,07,02,36,28.10
2008,10,07,02,37,44.80
2008,10,07,02,38,26.20
2008,10,07,02,39,35.90
2008,10,07,02,40,36.40
2008,10,07,02,41,38.60
2008,10,07,02,42,18.20
2008,10,07,02,43,32.40
2008,10,07,02,44,35.40
2008,10,07,02,45,35.60
2008,10,07,02,46,39.60
2008,10,07,02,47,39.70
2008,10,07,02,48,38.40
2008,10,07,02,49,40.10
2008,10,07,02,50,27.10
2008,10,07,02,51,35.20
2008,10,07,02,52,22.50
2008,10,07,02,53,19.30
2008,10,07,02,54,34.40
2008,10,07,02,55,29.20
2008,10,07,02,56,33.30
2008,10,07,02,57,30.20
2008,10,07,02,58,33.10
2008,10,07,02,59,26.40
2008,10,07,03,00,28.40
2008,10,07,03,01,25.50
2008,10,07,03,02,32.80
2008,10,07,03,03,42.10
2008,10,07,03,04,31.50
2008,10,07,03,05,23.20
2008,10,07,03,06,26.10
2008,10,07,03,07,48.80
2008,10,07,03,08,40.80
2008,10,07,03,09,28.90
2008,10,07,03,10,36.20
2008,10,07,03,11,39.20
2008,10,07,03,12,38.40
2008,10,07,03,13,31.00
2008,10,07,03,14,28.30
2008,10,07,03,15,30.50
2008,10,07,03,16,25.00
2008,10,07,03,17,34.80
2008,10,07,03,18,23.40
2008,10,07,03,19,24.10
2008,10,07,03,20,42.10
2008,10,07,03,21,27.50
2008,10,07,03,22,30.50
2008,10,07,03,23,34.20
2008,10,07,03,24,30.30
2008,10,07,03,25,28.60
2008,10,07,03,26,22.70
2008,10,07,03,27,22.00
2008,10,07,03,28,37.70
2008,10,07,03,29,25.70
2008,10,07,03,30,34.60
2008,10,07,03,31,21.50
2008,10,07,03,32,26.60
2008,10,07,03,33,21.50
2008,10,07,03,34,30.30
2008,10,07,03,35,33.30
2008,10,07,03,36,34.30
2008,10,07,03,37,40.60
2008,10,07,03,38,33.20
2008,10,07,03,39,27.70
2008,10,07,03,40,33.50
2008,10,07,03,41,41.60
2008,10,07,03,42,30.70
2008,10,07,03,43,33.70
2008,10,07,03,44,25.70
2008,10,07,03,45,39.60
2008,10,07,03,46,35.30
2008,10,07,03,47,34.40
2008,10,07,03,48,28.40
2008,10,07,03,49,36.40
2008,10,07,03,50,39.20
2008,10,07,03,51,25.30
2008,10,07,03,52,38.10
2008,10,07,03,53,40.20
2008,10,07,03,54,34.30
2008,10,07,03,55,43.40
2008,10,07,03,56,31.70
2008,10,07,03,57,46.80
2008,10,07,03,58,36.70
2008,10,07,03,59,27.80
2008,10,07,04,00,29.10
2008,10,07,04,01,30.60
2008,10,07,04,02,32.00
2008,10,07,04,03,38.90
2008,10,07,04,04,27.10
2008,10,07,04,05,28.30
2008,10,07,04,06,36.20
2008,10,07,04,07,26.50
2008,10,07,04,08,31.10
2008,10,07,04,09,22.80
2008,10,07,04,10,20.80
2008,10,07,04,11,27.40
2008,10,07,04,12,31.40
2008,10,07,04,13,28.70
2008,10,07,04,14,25.10
2008,10,07,04,15,30.20
2008,10,07,04,16,28.00
2008,10,07,04,17,22.80
2008,10,07,04,18,21.00
2008,10,07,04,19,24.40
2008,10,07,04,20,24.50
2008,10,07,04,21,24.10
2008,10,07,04,22,28.00
2008,10,07,04,23,30.50
2008,10,07,04,24,37.70
2008,10,07,04,25,46.10
2008,10,07,04,26,33.10
2008,10,07,04,27,29.00
2008,10,07,04,28,28.60
2008,10,07,04,29,19.90
2008,10,07,04,30,16.80
2008,10,07,04,31,23.10
2008,10,07,04,32,26.40
2008,10,07,04,33,25.20
2008,10,07,04,34,15.90
2008,10,07,04,35,22.40
2008,10,07,04,36,26.00
2008,10,07,04,37,34.50
2008,10,07,04,38,28.20
2008,10,07,04,39,22.50
2008,10,07,04,40,36.90
2008,10,07,04,41,27.40
2008,10,07,04,42,28.00
2008,10,07,04,43,26.70
2008,10,07,04,44,24.80
2008,10,07,04,45,26.10
2008,10,07,04,46,23.20
2008,10,07,04,47,23.50
2008,10,07,04,48,30.80
2008,10,07,04,49,27.00
2008,10,07,04,50,27.00
2008,10,07,04,51,28.10
2008,10,07,04,52,27.40
2008,10,07,04,53,25.10
2008,10,07,04,54,28.30
2008,10,07,04,55,20.70
2008,10,07,04,56,22.30
2008,10,07,04,57,30.50
2008,10,07,04,58,19.90
2008,10,07,04,59,26.40
2008,10,07,05,00,24.50
2008,10,07,05,01,22.70
2008,10,07,05,02,22.20
2008,10,07,05,03,24.90
2008,10,07,05,04,21.60
2008,10,07,05,05,21.60
2008,10,07,05,06,24.20
2008,10,07,05,07,27.80
2008,10,07,05,08,26.90
2008,10,07,05,09,24.10
2008,10,07,05,10,16.50
2008,10,07,05,11,19.40
2008,10,07,05,12,20.90
2008,10,07,05,13,22.80
2008,10,07,05,14,16.60
2008,10,07,05,15,33.90
2008,10,07,05,16,31.50
2008,10,07,05,17,23.00
2008,10,07,05,18,25.50
2008,10,07,05,19,19.50
2008,10,07,05,20,39.20
2008,10,07,05,21,30.30
2008,10,07,05,22,25.20
2008,10,07,05,23,27.30
2008,10,07,05,24,20.60
2008,10,07,05,25,28.20
2008,10,07,05,26,25.90
2008,10,07,05,27,25.30
2008,10,07,05,28,25.90
2008,10,07,05,29,27.70
2008,10,07,05,30,34.50
2008,10,07,05,31,30.20
2008,10,07,05,32,33.70
2008,10,07,05,33,25.00
2008,10,07,05,34,21.40
2008,10,07,05,35,23.70
2008,10,07,05,36,39.80
2008,10,07,05,37,25.80
2008,10,07,05,38,31.70
2008,10,07,05,39,28.10
2008,10,07,05,40,34.50
2008,10,07,05,41,24.90
2008,10,07,05,42,33.80
2008,10,07,05,43,29.00
2008,10,07,05,44,29.80
2008,10,07,05,45,27.60
2008,10,07,05,46,23.10
2008,10,07,05,47,23.90
2008,10,07,05,48,30.70
2008,10,07,05,49,26.60
2008,10,07,05,50,20.80
2008,10,07,05,51,29.90
2008,10,07,05,52,23.60
2008,10,07,05,53,28.20
2008,10,07,05,54,25.00
2008,10,07,05,55,32.20
2008,10,07,05,56,26.30
2008,10,07,05,57,24.00
2008,10,07,05,58,35.20
2008,10,07,05,59,34.90
2008,10,07,06,00,33.50
2008,10,07,06,01,31.70
2008,10,07,06,02,29.10
2008,10,07,06,03,37.20
2008,10,07,06,04,34.20
2008,10,07,06,05,27.20
2008,10,07,06,06,33.60
2008,10,07,06,07,28.70
2008,10,07,06,08,33.70
2008,10,07,06,09,38.40
2008,10,07,06,10,26.00
2008,10,07,06,11,26.60
2008,10,07,06,12,31.60
2008,10,07,06,13,31.10
2008,10,07,06,14,26.20
2008,10,07,06,15,23.90
2008,10,07,06,16,27.50
2008,10,07,06,17,20.10
2008,10,07,06,18,23.80
2008,10,07,06,19,23.50
2008,10,07,06,20,17.50
2008,10,07,06,21,23.30
2008,10,07,06,22,19.50
2008,10,07,06,23,22.70
2008,10,07,06,24,28.10
2008,10,07,06,25,29.10
2008,10,07,06,26,20.70
2008,10,07,06,27,29.10
2008,10,07,06,28,28.70
2008,10,07,06,29,35.00
2008,10,07,06,30,25.70
2008,10,07,06,31,25.20
2008,10,07,06,32,26.20
2008,10,07,06,33,24.40
2008,10,07,06,34,30.90
2008,10,07,06,35,26.70
2008,10,07,06,36,34.80
2008,10,07,06,37,28.80
2008,10,07,06,38,30.80
2008,10,07,06,39,25.00
2008,10,07,06,40,25.30
2008,10,07,06,41,27.60
2008,10,07,06,42,26.20
2008,10,07,06,43,20.70
2008,10,07,06,44,26.50
2008,10,07,06,45,23.40
2008,10,07,06,46,30.70
2008,10,07,06,47,29.00
2008,10,07,06,48,24.00
2008,10,07,06,49,27.90
2008,10,07,06,50,20.60
2008,10,07,06,51,20.70
2008,10,07,06,52,20.60
2008,10,07,06,53,25.90
2008,10,07,06,54,28.30
2008,10,07,06,55,24.60
2008,10,07,06,56,24.90
2008,10,07,06,57,40.40
2008,10,07,06,58,31.10
2008,10,07,06,59,34.50
2008,10,07,07,00,29.50
2008,10,07,07,01,28.30
2008,10,07,07,02,25.20
2008,10,07,07,03,31.30
2008,10,07,07,04,18.50
2008,10,07,07,05,21.60
2008,10,07,07,06,13.20
2008,10,07,07,07,16.40
2008,10,07,07,08,15.60
2008,10,07,07,09,12.00
2008,10,07,07,10,11.60
2008,10,07,07,11,16.10
2008,10,07,07,12,13.90
2008,10,07,07,13,10.60
2008,10,07,07,14,11.70
2008,10,07,07,15,7.00
2008,10,07,07,16,8.90
2008,10,07,07,17,11.80
2008,10,07,07,18,7.90
2008,10,07,07,19,15.30
2008,10,07,07,20,16.30
2008,10,07,07,21,7.90
2008,10,07,07,22,11.30
2008,10,07,07,23,6.90
2008,10,07,07,24,11.20
2008,10,07,07,25,18.30
2008,10,07,07,26,6.80
2008,10,07,07,27,8.20
2008,10,07,07,28,12.20
2008,10,07,07,29,19.20
2008,10,07,07,30,12.10
2008,10,07,07,31,10.80
2008,10,07,07,32,11.30
2008,10,07,07,33,16.30
2008,10,07,07,34,19.10
2008,10,07,07,35,16.90
2008,10,07,07,36,21.00
2008,10,07,07,37,19.60
2008,10,07,07,38,19.20
2008,10,07,07,39,21.40
2008,10,07,07,40,19.20
2008,10,07,07,41,17.90
2008,10,07,07,42,20.00
2008,10,07,07,43,17.80
2008,10,07,07,44,11.60
2008,10,07,07,45,11.20
2008,10,07,07,46,17.00
2008,10,07,07,47,30.40
2008,10,07,07,48,27.70
2008,10,07,07,49,26.10
2008,10,07,07,50,29.60
2008,10,07,07,51,23.50
2008,10,07,07,52,31.20
2008,10,07,07,53,31.10
2008,10,07,07,54,27.70
2008,10,07,07,55,22.90
2008,10,07,07,56,21.70
2008,10,07,07,57,22.70
2008,10,07,07,58,29.90
2008,10,07,07,59,27.60
2008,10,07,08,00,19.80
2008,10,07,08,01,20.20
2008,10,07,08,02,13.10
2008,10,07,08,03,15.90
2008,10,07,08,04,19.00
2008,10,07,08,05,24.30
2008,10,07,08,06,21.00
2008,10,07,08,07,18.30
2008,10,07,08,08,16.00
2008,10,07,08,09,14.20
2008,10,07,08,10,16.70
2008,10,07,08,11,23.80
2008,10,07,08,12,19.30
2008,10,07,08,13,24.00
2008,10,07,08,14,16.70
2008,10,07,08,15,18.10
2008,10,07,08,16,11.10
2008,10,07,08,17,13.50
2008,10,07,08,18,24.10
2008,10,07,08,19,16.60
2008,10,07,08,20,22.00
2008,10,07,08,21,28.20
2008,10,07,08,22,18.30
2008,10,07,08,23,19.30
2008,10,07,08,24,30.30
2008,10,07,08,25,23.70
2008,10,07,08,26,29.40
2008,10,07,08,27,18.20
2008,10,07,08,28,19.00
2008,10,07,08,29,20.50
2008,10,07,08,30,23.20
2008,10,07,08,31,26.60
2008,10,07,08,32,20.80
2008,10,07,08,33,22.90
2008,10,07,08,34,21.70
2008,10,07,08,35,15.20
2008,10,07,08,36,14.80
2008,10,07,08,37,14.30
2008,10,07,08,38,19.40
2008,10,07,08,39,16.30
2008,10,07,08,40,9.70
2008,10,07,08,41,17.60
2008,10,07,08,42,20.80
2008,10,07,08,43,18.40
2008,10,07,08,44,20.90
2008,10,07,08,45,25.60
2008,10,07,08,46,16.90
2008,10,07,08,47,20.00
2008,10,07,08,48,26.00
2008,10,07,08,49,23.60
2008,10,07,08,50,17.10
2008,10,07,08,51,19.00
2008,10,07,08,52,20.60
2008,10,07,08,53,17.30
2008,10,07,08,54,23.30
2008,10,07,08,55,16.40
2008,10,07,08,56,18.10
2008,10,07,08,57,23.90
2008,10,07,08,58,25.60
2008,10,07,08,59,17.70
2008,10,07,09,00,21.00
2008,10,07,09,01,21.50
2008,10,07,09,02,24.50
2008,10,07,09,03,27.90
2008,10,07,09,04,28.80
2008,10,07,09,05,27.40
2008,10,07,09,06,26.20
2008,10,07,09,07,28.80
2008,10,07,09,08,28.50
2008,10,07,09,09,24.10
2008,10,07,09,10,19.30
2008,10,07,09,11,20.50
2008,10,07,09,12,35.40
2008,10,07,09,13,21.50
2008,10,07,09,14,26.40
2008,10,07,09,15,25.20
2008,10,07,09,16,14.00
2008,10,07,09,17,31.70
2008,10,07,09,18,24.30
2008,10,07,09,19,25.00
2008,10,07,09,20,18.50
2008,10,07,09,21,21.10
2008,10,07,09,22,20.10
2008,10,07,09,23,22.80
2008,10,07,09,24,20.70
2008,10,07,09,25,23.20
2008,10,07,09,26,9.80
2008,10,07,09,27,24.00
2008,10,07,09,28,16.50
2008,10,07,09,29,27.10
2008,10,07,09,30,17.40
2008,10,07,09,31,23.70
2008,10,07,09,32,29.90
2008,10,07,09,33,18.50
2008,10,07,09,34,20.40
2008,10,07,09,35,22.30
2008,10,07,09,36,29.60
2008,10,07,09,37,30.10
2008,10,07,09,38,20.50
2008,10,07,09,39,15.90
2008,10,07,09,40,24.30
2008,10,07,09,41,24.50
2008,10,07,09,42,21.20
2008,10,07,09,43,26.30
2008,10,07,09,44,28.10
2008,10,07,09,45,28.60
2008,10,07,09,46,18.80
2008,10,07,09,47,36.70
2008,10,07,09,48,33.50
2008,10,07,09,49,29.00
2008,10,07,09,50,24.60
2008,10,07,09,51,27.10
2008,10,07,09,52,30.10
2008,10,07,09,53,35.60
2008,10,07,09,54,28.30
2008,10,07,09,55,23.70
2008,10,07,09,56,23.20
2008,10,07,09,57,23.20
2008,10,07,09,58,23.90
2008,10,07,09,59,20.40
2008,10,07,10,00,26.60
2008,10,07,10,01,33.10
2008,10,07,10,02,21.90
2008,10,07,10,03,25.80
2008,10,07,10,04,21.70
2008,10,07,10,05,24.20
2008,10,07,10,06,30.80
2008,10,07,10,07,27.50
2008,10,07,10,08,31.50
2008,10,07,10,09,25.10
2008,10,07,10,10,19.90
2008,10,07,10,11,25.20
2008,10,07,10,12,32.90
2008,10,07,10,13,27.80
2008,10,07,10,14,19.90
2008,10,07,10,15,23.40
2008,10,07,10,16,23.00
2008,10,07,10,17,23.00
2008,10,07,10,18,25.70
2008,10,07,10,19,21.70
2008,10,07,10,20,33.30
2008,10,07,10,21,23.40
2008,10,07,10,22,21.50
2008,10,07,10,23,31.70
2008,10,07,10,24,20.70
2008,10,07,10,25,33.30
2008,10,07,10,26,23.90
2008,10,07,10,27,29.10
2008,10,07,10,28,15.60
2008,10,07,10,29,23.60
2008,10,07,10,30,22.30
2008,10,07,10,31,27.00
2008,10,07,10,32,30.30
2008,10,07,10,33,27.00
2008,10,07,10,34,16.30
2008,10,07,10,35,20.30
2008,10,07,10,36,27.30
2008,10,07,10,37,26.60
2008,10,07,10,38,16.80
2008,10,07,10,39,24.10
2008,10,07,10,40,34.20
2008,10,07,10,41,29.90
2008,10,07,10,42,12.70
2008,10,07,10,43,12.30
2008,10,07,10,44,14.30
2008,10,07,10,45,13.10
2008,10,07,10,46,30.70
2008,10,07,10,47,24.30
2008,10,07,10,48,21.30
2008,10,07,10,49,32.20
2008,10,07,10,50,18.70
2008,10,07,10,51,24.70
2008,10,07,10,52,22.10
2008,10,07,10,53,26.20
2008,10,07,10,54,20.60
2008,10,07,10,55,25.10
2008,10,07,10,56,21.50
2008,10,07,10,57,22.80
2008,10,07,10,58,29.10
2008,10,07,10,59,22.90
2008,10,07,11,00,21.20
2008,10,07,11,01,14.20
2008,10,07,11,02,32.00
2008,10,07,11,03,22.70
2008,10,07,11,04,30.00
2008,10,07,11,05,16.60
2008,10,07,11,06,23.70
2008,10,07,11,07,26.20
2008,10,07,11,08,33.70
2008,10,07,11,09,30.20
2008,10,07,11,10,23.20
2008,10,07,11,11,19.50
2008,10,07,11,12,24.20
2008,10,07,11,13,14.40
2008,10,07,11,14,27.10
2008,10,07,11,15,17.30
2008,10,07,11,16,18.90
2008,10,07,11,17,13.10
2008,10,07,11,18,26.00
2008,10,07,11,19,24.90
2008,10,07,11,20,21.20
2008,10,07,11,21,25.60
2008,10,07,11,22,24.10
2008,10,07,11,23,20.90
2008,10,07,11,24,19.90
2008,10,07,11,25,21.50
2008,10,07,11,26,30.80
2008,10,07,11,27,31.90
2008,10,07,11,28,24.60
2008,10,07,11,29,22.40
2008,10,07,11,30,18.70
2008,10,07,11,31,26.60
2008,10,07,11,32,29.00
2008,10,07,11,33,23.40
2008,10,07,11,34,21.20
2008,10,07,11,35,29.80
2008,10,07,11,36,17.70
2008,10,07,11,37,27.50
2008,10,07,11,38,23.30
2008,10,07,11,39,25.00
2008,10,07,11,40,33.00
2008,10,07,11,41,27.20
2008,10,07,11,42,22.60
2008,10,07,11,43,18.50
2008,10,07,11,44,18.00
2008,10,07,11,45,17.30
2008,10,07,11,46,23.20
2008,10,07,11,47,21.30
2008,10,07,11,48,21.40
2008,10,07,11,49,22.90
2008,10,07,11,50,22.30
2008,10,07,11,51,27.80
2008,10,07,11,52,28.00
2008,10,07,11,53,22.70
2008,10,07,11,54,16.60
2008,10,07,11,55,9.00
2008,10,07,11,56,10.90
2008,10,07,11,57,23.40
2008,10,07,11,58,27.60
2008,10,07,11,59,18.60
2008,10,07,12,00,17.60
2008,10,07,12,01,27.60
2008,10,07,12,02,24.10
2008,10,07,12,03,28.10
2008,10,07,12,04,22.00
2008,10,07,12,05,18.80
2008,10,07,12,06,15.90
2008,10,07,12,07,26.80
2008,10,07,12,08,32.80
2008,10,07,12,09,15.60
2008,10,07,12,10,25.70
2008,10,07,12,11,20.00
2008,10,07,12,12,22.40
2008,10,07,12,13,22.70
2008,10,07,12,14,24.30
2008,10,07,12,15,30.50
2008,10,07,12,16,26.40
2008,10,07,12,17,26.90
2008,10,07,12,18,22.50
2008,10,07,12,19,34.80
2008,10,07,12,20,20.70
2008,10,07,12,21,15.20
2008,10,07,12,22,23.50
2008,10,07,12,23,21.60
2008,10,07,12,24,22.40
2008,10,07,12,25,23.50
2008,10,07,12,26,29.10
2008,10,07,12,27,23.90
2008,10,07,12,28,30.80
2008,10,07,12,29,23.00
2008,10,07,12,30,30.00
2008,10,07,12,31,26.70
2008,10,07,12,32,24.80
2008,10,07,12,33,21.80
2008,10,07,12,34,29.10
2008,10,07,12,35,30.00
2008,10,07,12,36,31.10
2008,10,07,12,37,35.10
2008,10,07,12,38,23.20
2008,10,07,12,39,20.40
2008,10,07,12,40,25.20
2008,10,07,12,41,26.80
2008,10,07,12,42,26.70
2008,10,07,12,43,13.30
2008,10,07,12,44,21.40
2008,10,07,12,45,24.80
2008,10,07,12,46,27.30
2008,10,07,12,47,18.10
2008,10,07,12,48,23.90
2008,10,07,12,49,31.10
2008,10,07,12,50,27.50
2008,10,07,12,51,38.80
2008,10,07,12,52,30.10
2008,10,07,12,53,21.50
2008,10,07,12,54,36.30
2008,10,07,12,55,27.00
2008,10,07,12,56,21.70
2008,10,07,12,57,24.70
2008,10,07,12,58,28.30
2008,10,07,12,59,25.20
2008,10,07,13,00,19.90
2008,10,07,13,01,35.30
2008,10,07,13,02,32.20
2008,10,07,13,03,26.90
2008,10,07,13,04,26.50
2008,10,07,13,05,19.40
2008,10,07,13,06,21.50
2008,10,07,13,07,21.60
2008,10,07,13,08,28.10
2008,10,07,13,09,24.30
2008,10,07,13,10,36.70
2008,10,07,13,11,30.20
2008,10,07,13,12,18.60
2008,10,07,13,13,26.70
2008,10,07,13,14,23.60
2008,10,07,13,15,23.30
2008,10,07,13,16,26.80
2008,10,07,13,17,23.20
2008,10,07,13,18,19.50
2008,10,07,13,19,22.90
2008,10,07,13,20,19.20
2008,10,07,13,21,25.30
2008,10,07,13,22,28.90
2008,10,07,13,23,19.80
2008,10,07,13,24,24.30
2008,10,07,13,25,28.10
2008,10,07,13,26,36.10
2008,10,07,13,27,27.80
2008,10,07,13,28,25.80
2008,10,07,13,29,15.90
2008,10,07,13,30,17.10
2008,10,07,13,31,17.70
2008,10,07,13,32,18.90
2008,10,07,13,33,14.60
2008,10,07,13,34,21.00
2008,10,07,13,35,22.70
2008,10,07,13,36,14.80
2008,10,07,13,37,12.30
2008,10,07,13,38,19.00
2008,10,07,13,39,15.90
2008,10,07,13,40,16.70
2008,10,07,13,41,13.70
2008,10,07,13,42,22.90
2008,10,07,13,43,15.40
2008,10,07,13,44,22.30
2008,10,07,13,45,17.30
2008,10,07,13,46,21.60
2008,10,07,13,47,23.70
2008,10,07,13,48,25.10
2008,10,07,13,49,22.80
2008,10,07,13,50,23.30
2008,10,07,13,51,23.90
2008,10,07,13,52,13.30
2008,10,07,13,53,26.60
2008,10,07,13,54,25.90
2008,10,07,13,55,15.10
2008,10,07,13,56,25.50
2008,10,07,13,57,14.20
2008,10,07,13,58,17.10
2008,10,07,13,59,17.40
2008,10,07,14,00,15.60
2008,10,07,14,01,13.90
2008,10,07,14,02,10.50
2008,10,07,14,03,7.10
2008,10,07,14,04,7.20
2008,10,07,14,05,7.20
2008,10,07,14,06,5.60
2008,10,07,14,07,7.80
2008,10,07,14,08,11.00
2008,10,07,14,09,21.80
2008,10,07,14,10,15.70
2008,10,07,14,11,10.70
2008,10,07,14,12,5.40
2008,10,07,14,13,13.70
2008,10,07,14,14,8.70
2008,10,07,14,15,6.60
2008,10,07,14,16,9.70
2008,10,07,14,17,9.20
2008,10,07,14,18,12.50
2008,10,07,14,19,14.60
2008,10,07,14,20,11.90
2008,10,07,14,21,11.40
2008,10,07,14,22,10.20
2008,10,07,14,23,18.30
2008,10,07,14,24,20.30
2008,10,07,14,25,23.40
2008,10,07,14,26,16.00
2008,10,07,14,27,10.80
2008,10,07,14,28,13.40
2008,10,07,14,29,23.40
2008,10,07,14,30,19.00
2008,10,07,14,31,10.60
2008,10,07,14,32,15.60
2008,10,07,14,33,17.70
2008,10,07,14,34,22.80
2008,10,07,14,35,19.00
2008,10,07,14,36,10.60
2008,10,07,14,37,16.60
2008,10,07,14,38,15.60
2008,10,07,14,39,12.10
2008,10,07,14,40,20.20
2008,10,07,14,41,11.10
2008,10,07,14,42,15.10
2008,10,07,14,43,15.40
2008,10,07,14,44,11.30
2008,10,07,14,45,19.80
2008,10,07,14,46,11.90
2008,10,07,14,47,7.40
2008,10,07,14,48,12.10
2008,10,07,14,49,8.50
2008,10,07,14,50,10.80
2008,10,07,14,51,12.50
2008,10,07,14,52,11.00
2008,10,07,14,53,15.80
2008,10,07,14,54,13.00
2008,10,07,14,55,10.40
2008,10,07,14,56,14.80
2008,10,07,14,57,15.60
2008,10,07,14,58,23.10
2008,10,07,14,59,14.00
2008,10,07,15,00,16.30
2008,10,07,15,01,12.90
2008,10,07,15,02,15.20
2008,10,07,15,03,19.90
2008,10,07,15,04,22.70
2008,10,07,15,05,8.90
2008,10,07,15,06,13.80
2008,10,07,15,07,13.00
2008,10,07,15,08,17.40
2008,10,07,15,09,20.40
2008,10,07,15,10,20.00
2008,10,07,15,11,17.00
2008,10,07,15,12,17.40
2008,10,07,15,13,15.90
2008,10,07,15,14,20.30
2008,10,07,15,15,21.10
2008,10,07,15,16,19.00
2008,10,07,15,17,19.70
2008,10,07,15,18,11.70
2008,10,07,15,19,15.50
2008,10,07,15,20,10.00
2008,10,07,15,21,16.20
2008,10,07,15,22,17.10
2008,10,07,15,23,16.20
2008,10,07,15,24,18.80
2008,10,07,15,25,17.40
2008,10,07,15,26,10.50
2008,10,07,15,27,20.20
2008,10,07,15,28,12.00
2008,10,07,15,29,15.10
2008,10,07,15,30,16.10
2008,10,07,15,31,18.20
2008,10,07,15,32,15.10
2008,10,07,15,33,21.40
2008,10,07,15,34,21.80
2008,10,07,15,35,12.90
2008,10,07,15,36,15.50
2008,10,07,15,37,15.70
2008,10,07,15,38,10.00
2008,10,07,15,39,17.40
2008,10,07,15,40,19.00
2008,10,07,15,41,19.10
2008,10,07,15,42,18.80
2008,10,07,15,43,16.00
2008,10,07,15,44,10.50
2008,10,07,15,45,15.60
2008,10,07,15,46,17.90
2008,10,07,15,47,15.80
2008,10,07,15,48,12.80
2008,10,07,15,49,8.20
2008,10,07,15,50,11.60
2008,10,07,15,51,7.20
2008,10,07,15,52,10.40
2008,10,07,15,53,12.30
2008,10,07,15,54,15.30
2008,10,07,15,55,16.00
2008,10,07,15,56,10.70
2008,10,07,15,57,10.70
2008,10,07,15,58,10.20
2008,10,07,15,59,15.60
2008,10,07,16,00,16.50
2008,10,07,16,01,16.30
2008,10,07,16,02,11.60
2008,10,07,16,03,11.80
2008,10,07,16,04,13.90
2008,10,07,16,05,14.30
2008,10,07,16,06,11.60
2008,10,07,16,07,12.60
2008,10,07,16,08,19.00
2008,10,07,16,09,18.90
2008,10,07,16,10,22.10
2008,10,07,16,11,17.10
2008,10,07,16,12,11.60
2008,10,07,16,13,14.30
2008,10,07,16,14,17.00
2008,10,07,16,15,11.00
2008,10,07,16,16,13.50
2008,10,07,16,17,14.30
2008,10,07,16,18,20.80
2008,10,07,16,19,17.30
2008,10,07,16,20,11.30
2008,10,07,16,21,15.60
2008,10,07,16,22,22.50
2008,10,07,16,23,19.10
2008,10,07,16,24,19.70
2008,10,07,16,25,20.80
2008,10,07,16,26,20.60
2008,10,07,16,27,18.10
2008,10,07,16,28,12.50
2008,10,07,16,29,16.30
2008,10,07,16,30,16.40
2008,10,07,16,31,14.00
2008,10,07,16,32,12.00
2008,10,07,16,33,14.60
2008,10,07,16,34,13.90
2008,10,07,16,35,12.20
2008,10,07,16,36,14.40
2008,10,07,16,37,20.60
2008,10,07,16,38,18.00
2008,10,07,16,39,9.50
2008,10,07,16,40,12.70
2008,10,07,16,41,16.00
2008,10,07,16,42,10.60
2008,10,07,16,43,7.10
2008,10,07,16,44,10.90
2008,10,07,16,45,17.10
2008,10,07,16,46,15.60
2008,10,07,16,47,17.80
2008,10,07,16,48,9.30
2008,10,07,16,49,15.30
2008,10,07,16,50,16.20
2008,10,07,16,51,12.10
2008,10,07,16,52,11.70
2008,10,07,16,53,17.60
2008,10,07,16,54,10.20
2008,10,07,16,55,10.10
2008,10,07,16,56,8.70
2008,10,07,16,57,9.80
2008,10,07,16,58,15.20
2008,10,07,16,59,13.90
2008,10,07,17,00,13.00
2008,10,07,17,01,12.00
2008,10,07,17,02,8.90
2008,10,07,17,03,11.00
2008,10,07,17,04,7.40
2008,10,07,17,05,10.90
2008,10,07,17,06,14.00
2008,10,07,17,07,7.00
2008,10,07,17,08,6.90
2008,10,07,17,09,6.50
2008,10,07,17,10,14.60
2008,10,07,17,11,8.30
2008,10,07,17,12,10.50
2008,10,07,17,13,9.80
2008,10,07,17,14,9.10
2008,10,07,17,15,9.10
2008,10,07,17,16,9.00
2008,10,07,17,17,11.00
2008,10,07,17,18,15.00
2008,10,07,17,19,9.20
2008,10,07,17,20,9.20
2008,10,07,17,21,8.30